LANDSAT 4

导读

LANDSAT 4是美国NASA于1982年7月16日发射的新一代地球资源观测卫星,属于陆地卫星系列。它搭载了新型专题制图仪(TM)和多光谱扫描仪(MSS),提供7个光谱波段数据,空间分辨率和辐射精度相比前代大幅提升,可精准观测地球资源与环境变化。该卫星直至2001年6月15日正式退役,为全球地表研究持续提供了近20年珍贵观测数据。

Basic Information
目录编号:
13367
目录名称:
LANDSAT 4
国际标识:
1982-072A
轨道中心:
EARTH
卫星名称:
LANDSAT 4
卫星全名:
--
卫星状态:
已陨落 最后检测时间 2025-10-08
发射日期:
1982-07-16 UTC
国别 :
美国 (US)
星等 :
--
Orbit Information
数据来源 国际轨道数据
星历时间: 2025-10-08T11:15:16+0800
轨道信息已过期292天
半长轴: 6530.66km
偏心率: 0.0010689
轨道倾角: 98.163°
近地点辐角 260.425°
升交点赤经 64.454°
平近点角 99.584°
近地点: 145.544km
远地点: 159.506km
周期: 87.538分钟
每日圈数: 16.45005
Detailed Information
使用方式:
暂无